GW1414 Weather Reports


Display with metric or nautical units.
time (UTC)temp
F
wind
direction
speed
MPH
gust
MPH
rain 1hr
in
rain 24hr
in
rain mn
in
humidity
%
barometer
mb
20260903001805 83 220 0.0 0.0 0.00 0.00 0.00 79 1017.9
20260903001300 84 225 0.0 0.0 0.00 0.00 0.00 78 1017.9
20260903000754 84 220 0.0 0.0 0.00 0.00 0.00 77 1017.9
20260903000249 84 220 0.0 0.0 0.00 0.00 0.00 77 1017.9
20260902235747 85 224 0.0 0.0 0.00 0.00 0.00 76 1017.7
20260902235242 85 225 0.0 0.0 0.00 0.00 0.00 75 1017.8
20260902234742 86 231 0.0 0.0 0.00 0.00 0.00 74 1017.7
20260902234236 87 237 1.0 2.0 0.00 0.00 0.00 72 1017.7
20260902233736 87 227 0.0 1.0 0.00 0.00 0.00 73 1017.7
20260902233230 87 229 1.0 1.0 0.00 0.00 0.00 71 1017.9
20260902232729 87 237 0.0 0.0 0.00 0.00 0.00 71 1017.8
20260902232229 88 251 0.0 0.0 0.00 0.00 0.00 70 1017.8
20260902231728 88 235 1.0 2.0 0.00 0.00 0.00 70 1018.0
20260902231224 88 227 1.0 1.0 0.00 0.00 0.00 70 1018.0
20260902230719 88 235 0.0 1.0 0.00 0.00 0.00 68 1018.0
20260902230217 89 250 1.0 2.0 0.00 0.00 0.00 69 1018.0
20260902225713 89 239 0.0 0.0 0.00 0.00 0.00 68 1018.0
20260902225213 89 225 1.0 2.0 0.00 0.00 0.00 69 1018.0
20260902224711 89 236 0.0 1.0 0.00 0.00 0.00 67 1018.0
20260902224207 89 267 1.0 2.0 0.00 0.00 0.00 68 1018.0
20260902223703 89 236 2.0 2.0 0.00 0.00 0.00 68 1018.0
20260902223202 89 228 3.0 3.0 0.00 0.00 0.00 66
20260902222701 89 228 3.0 3.0 0.00 0.00 0.00 66
20260902222200 90 238 2.0 3.0 0.00 0.00 0.00 66
20260902221649 90 238 2.0 3.0 0.00 0.00 0.00 66
20260902221149 90 238 2.0 3.0 0.00 0.00 0.00 66
20260902220644 90 258 0.0 1.0 0.00 0.00 0.00 64
20260902220139 91 247 1.0 1.0 0.00 0.00 0.00 64 1018.2
20260902215635 91 247 1.0 1.0 0.00 0.00 0.00 64 1018.2
20260902215130 91 236 0.0 0.0 0.00 0.00 0.00 64 1018.2
20260902214625 91 236 0.0 0.0 0.00 0.00 0.00 64 1018.2
20260902214124 91 236 0.0 0.0 0.00 0.00 0.00 64 1018.2
20260902213620 91 236 0.0 0.0 0.00 0.00 0.00 64 1018.2
20260902213119 91 287 1.0 2.0 0.00 0.00 0.00 63 1018.2
20260902212615 91 287 1.0 2.0 0.00 0.00 0.00 63 1018.2
20260902212111 91 234 0.0 1.0 0.00 0.00 0.00 63 1018.2
20260902211607 91 234 0.0 1.0 0.00 0.00 0.00 63 1018.2
20260902211102 91 234 0.0 1.0 0.00 0.00 0.00 63 1018.2
20260902210556 94 278 3.0 3.0 0.00 0.00 0.00 57 1018.2
20260902210055 94 278 3.0 3.0 0.00 0.00 0.00 57
20260902205555 94 278 3.0 3.0 0.00 0.00 0.00 57
20260902205051 94 278 3.0 3.0 0.00 0.00 0.00 57
20260902204545 94 278 3.0 3.0 0.00 0.00 0.00 57
20260902204040 94 278 3.0 3.0 0.00 0.00 0.00 57
20260902203535 94 278 3.0 3.0 0.00 0.00 0.00 57
20260902203034 93 249 1.0 1.0 0.00 0.00 0.00 59 1019.4
20260902202530 93 270 1.0 1.0 0.00 0.00 0.00 59 1019.4
20260902202027 93 270 1.0 1.0 0.00 0.00 0.00 59 1019.4
20260902201522 93 270 1.0 1.0 0.00 0.00 0.00 59 1019.4
20260902201021 93 270 1.0 1.0 0.00 0.00 0.00 59 1019.4
20260902200516 93 270 1.0 1.0 0.00 0.00 0.00 59 1019.4
20260902200012 93 270 1.0 1.0 0.00 0.00 0.00 59 1019.4
20260902195508 93 270 1.0 1.0 0.00 0.00 0.00 59 1019.4
20260902195007 93 270 1.0 1.0 0.00 0.00 0.00 59 1019.4
20260902194501 94 265 2.0 2.0 0.00 0.00 0.00 58 1019.4
20260902193956 94 265 2.0 2.0 0.00 0.00 0.00 58 1019.4
20260902193452 94 265 2.0 2.0 0.00 0.00 0.00 58 1019.4
20260902192950 94 252 0.0 0.0 0.00 0.00 0.00 59 1019.5
20260902192450 94 268 1.0 2.0 0.00 0.00 0.00 57 1019.5
20260902191949 94 268 1.0 2.0 0.00 0.00 0.00 57 1019.5
20260902191444 93 261 0.0 1.0 0.00 0.00 0.00 59 1019.5
20260902190939 93 261 0.0 1.0 0.00 0.00 0.00 59 1019.5
20260902190435 93 261 0.0 1.0 0.00 0.00 0.00 59 1019.5
20260902185930 93 261 0.0 1.0 0.00 0.00 0.00 59 1019.5
20260902185426 93 269 1.0 1.0 0.00 0.00 0.00 57 1019.5
20260902184921 92 231 1.0 1.0 0.00 0.00 0.00 63 1019.5
20260902184416 92 231 1.0 1.0 0.00 0.00 0.00 63 1019.8
20260902183912 93 237 0.0 0.0 0.00 0.00 0.00 59 1019.8
20260902183408 92 255 3.0 5.0 0.00 0.00 0.00 60 1019.8
20260902182904 93 272 2.0 2.0 0.00 0.00 0.00 59 1019.8
20260902182400 92 267 2.0 3.0 0.00 0.00 0.00 60 1019.8
20260902181856 93 269 3.0 5.0 0.00 0.00 0.00 61 1019.8
20260902181352 92 278 2.0 3.0 0.00 0.00 0.00 60 1019.8
20260902180851 93 257 2.0 2.0 0.00 0.00 0.00 59 1019.8
20260902180347 93 268 2.0 3.0 0.00 0.00 0.00 59 1019.9
20260902175842 92 271 3.0 3.0 0.00 0.00 0.00 59 1019.9
20260902175337 93 277 3.0 5.0 0.00 0.00 0.00 59 1019.9
20260902174832 93 258 2.0 3.0 0.00 0.00 0.00 60 1019.8
20260902174329 93 241 0.0 1.0 0.00 0.00 0.00 62 1019.8
20260902173819 92 275 3.0 5.0 0.00 0.00 0.00 61 1020.0
20260902173319 92 271 1.0 2.0 0.00 0.00 0.00 60 1020.1
20260902172813 93 246 1.0 2.0 0.00 0.00 0.00 60 1020.6
20260902172308 93 235 0.0 0.0 0.00 0.00 0.00 61 1020.6
20260902171802 92 250 0.0 1.0 0.00 0.00 0.00 61 1020.6
20260902171257 92 274 1.0 2.0 0.00 0.00 0.00 60 1020.6
20260902170754 93 277 3.0 3.0 0.00 0.00 0.00 60 1020.6
20260902170249 92 267 2.0 2.0 0.00 0.00 0.00 63 1020.6
20260902165744 92 286 1.0 1.0 0.00 0.00 0.00 63 1020.6
20260902165243 92 248 0.0 2.0 0.00 0.00 0.00 62 1020.6
20260902164738 91 255 1.0 2.0 0.00 0.00 0.00 64 1020.6
20260902164233 91 265 1.0 1.0 0.00 0.00 0.00 65 1020.6
20260902163728 91 265 0.0 1.0 0.00 0.00 0.00 63 1020.6
20260902163227 90 254 2.0 2.0 0.00 0.00 0.00 63 1020.6
20260902162726 91 276 4.0 6.0 0.00 0.00 0.00 63 1020.6
20260902162221 91 277 1.0 3.0 0.00 0.00 0.00 62 1020.6
20260902161716 91 253 1.0 2.0 0.00 0.00 0.00 63 1020.6
20260902161211 91 253 0.0 0.0 0.00 0.00 0.00 65 1020.6
20260902160709 90 238 1.0 2.0 0.00 0.00 0.00 65 1020.6
20260902160202 90 238 1.0 2.0 0.00 0.00 0.00 65 1020.6
20260902155701 90 277 1.0 2.0 0.00 0.00 0.00 67 1020.6
20260902155159 91 261 2.0 2.0 0.00 0.00 0.00 66 1020.6
20260902154654 90 245 0.0 0.0 0.00 0.00 0.00 68 1020.6
20260902154148 90 268 1.0 2.0 0.00 0.00 0.00 66 1020.6
20260902153643 90 237 1.0 2.0 0.00 0.00 0.00 68 1020.6
20260902153138 90 241 1.0 2.0 0.00 0.00 0.00 68 1020.6
20260902152634 90 266 1.0 1.0 0.00 0.00 0.00 68 1020.5
20260902152129 89 242 0.0 1.0 0.00 0.00 0.00 68 1020.4
20260902151625 89 269 2.0 2.0 0.00 0.00 0.00 68 1020.4
20260902151119 88 245 1.0 2.0 0.00 0.00 0.00 68 1020.4
20260902150614 89 276 2.0 2.0 0.00 0.00 0.00 68 1020.6
20260902150110 88 250 0.0 0.0 0.00 0.00 0.00 70 1020.6
20260902145604 87 268 1.0 2.0 0.00 0.00 0.00 69 1020.6
20260902145103 87 268 1.0 2.0 0.00 0.00 0.00 69 1020.7
20260902144600 87 259 1.0 2.0 0.00 0.00 0.00 71 1020.7
20260902144055 86 271 1.0 1.0 0.00 0.00 0.00 71 1020.5
20260902143550 86 287 2.0 3.0 0.00 0.00 0.00 71 1020.5
20260902143046 86 297 3.0 6.0 0.00 0.00 0.00 72 1020.5
20260902142543 87 273 3.0 3.0 0.00 0.00 0.00 72 1020.5
20260902142036 87 261 1.0 1.0 0.00 0.00 0.00 71 1020.4
20260902141536 87 270 1.0 1.0 0.00 0.00 0.00 73 1020.4
20260902141031 86 267 1.0 1.0 0.00 0.00 0.00 74 1020.6
20260902140526 85 239 1.0 2.0 0.00 0.00 0.00 75
20260902140021 85 283 1.0 2.0 0.00 0.00 0.00 76
20260902135520 84 241 1.0 2.0 0.00 0.00 0.00 76
20260902135016 84 268 2.0 2.0 0.00 0.00 0.00 76
20260902134511 83 273 1.0 1.0 0.00 0.00 0.00 77
20260902134006 83 241 1.0 2.0 0.00 0.00 0.00 77
20260902133501 83 237 0.0 2.0 0.00 0.00 0.00 77
20260902132955 83 256 1.0 1.0 0.00 0.00 0.00 77
20260902132451 82 272 1.0 1.0 0.00 0.00 0.00 78
20260902131945 82 249 1.0 2.0 0.00 0.00 0.00 79
20260902131442 82 266 1.0 1.0 0.00 0.00 0.00 78
20260902130941 81 250 0.0 1.0 0.00 0.00 0.00 81 1020.5
20260902130437 81 250 0.0 1.0 0.00 0.00 0.00 81 1020.5
20260902125932 81 250 0.0 1.0 0.00 0.00 0.00 81 1020.5
20260902125428 80 236 0.0 0.0 0.00 0.00 0.00 82 1020.5
20260902124924 80 242 0.0 1.0 0.00 0.00 0.00 82 1020.5
20260902124419 79 243 0.0 0.0 0.00 0.00 0.00 83 1020.5
20260902123914 79 265 1.0 1.0 0.00 0.00 0.00 83 1020.5
20260902123411 79 233 0.0 0.0 0.00 0.00 0.00 83 1020.5
20260902122909 79 237 0.0 0.0 0.00 0.00 0.00 83 1020.5
20260902122405 78 228 0.0 0.0 0.00 0.00 0.00 85 1020.5
20260902121900 77 227 0.0 0.0 0.00 0.00 0.00 87 1020.5
20260902121355 76 219 0.0 0.0 0.00 0.00 0.00 89 1020.5
20260902120850 76 212 0.0 0.0 0.00 0.00 0.00 90 1020.0
20260902120346 72 182 1.0 1.0 0.00 0.00 0.00 95 1020.0
20260902115840 72 182 1.0 1.0 0.00 0.00 0.00 95 1020.0
20260902115337 72 182 1.0 1.0 0.00 0.00 0.00 95 1020.0
20260902114833 72 182 1.0 1.0 0.00 0.00 0.00 95 1020.0
20260902114329 72 182 1.0 1.0 0.00 0.00 0.00 95 1020.0
20260902113828 72 211 0.0 0.0 0.00 0.00 0.00 96 1019.9
20260902113323 72 209 0.0 0.0 0.00 0.00 0.00 96 1019.8
20260902112818 71 202 1.0 1.0 0.00 0.00 0.00 96 1019.9
20260902112314 71 218 0.0 0.0 0.00 0.00 0.00 96 1019.8
20260902111809 71 210 0.0 0.0 0.00 0.00 0.00 96 1019.8
20260902111305 72 217 0.0 0.0 0.00 0.00 0.00 96 1019.8
20260902110801 72 217 0.0 0.0 0.00 0.00 0.00 96 1019.6
20260902110256 72 218 0.0 0.0 0.00 0.00 0.00 95 1019.7
20260902105756 72 211 0.0 0.0 0.00 0.00 0.00 95 1019.5
20260902105251 72 209 0.0 0.0 0.00 0.00 0.00 95 1019.6
20260902104747 72 210 0.0 0.0 0.00 0.00 0.00 95 1019.6
20260902104243 72 209 0.0 0.0 0.00 0.00 0.00 95 1019.6
20260902103742 72 232 0.0 0.0 0.00 0.00 0.00 95 1019.6
20260902103237 72 220 0.0 0.0 0.00 0.00 0.00 95 1019.7
20260902102733 72 229 0.0 0.0 0.00 0.00 0.00 95 1019.6
20260902102231 72 220 0.0 0.0 0.00 0.00 0.00 95 1019.6
20260902101725 72 231 0.0 0.0 0.00 0.00 0.00 94 1019.8
20260902101220 72 227 0.0 0.0 0.00 0.00 0.00 94 1019.4
20260902100719 73 224 0.0 0.0 0.00 0.00 0.00 94 1019.5
20260902100214 73 211 0.0 0.0 0.00 0.00 0.00 94 1019.5
20260902095714 73 211 0.0 0.0 0.00 0.00 0.00 94 1019.7
20260902095208 73 211 0.0 0.0 0.00 0.00 0.00 94 1019.5
20260902094703 73 211 0.0 0.0 0.00 0.00 0.00 94 1019.5
20260902094200 73 211 0.0 0.0 0.00 0.00 0.00 94 1019.5
20260902093658 73 211 0.0 0.0 0.00 0.00 0.00 94 1019.6
20260902093154 73 211 0.0 0.0 0.00 0.00 0.00 93 1019.6
20260902092648 73 211 0.0 0.0 0.00 0.00 0.00 93 1019.6
20260902092143 73 211 0.0 0.0 0.00 0.00 0.00 93 1019.6
20260902091638 73 211 0.0 0.0 0.00 0.00 0.00 92 1019.6
20260902091134 74 211 0.0 0.0 0.00 0.00 0.00 92 1019.4
20260902090630 74 211 0.0 0.0 0.00 0.00 0.00 92 1019.4
20260902090129 74 211 0.0 0.0 0.00 0.00 0.00 91 1019.4
20260902085624 74 211 0.0 0.0 0.00 0.00 0.00 91 1019.2
20260902085119 74 211 0.0 0.0 0.00 0.00 0.00 90 1019.2
20260902084615 74 211 0.0 0.0 0.00 0.00 0.00 90 1019.4
20260902084111 74 222 0.0 0.0 0.00 0.00 0.00 90 1019.4
20260902083606 74 222 0.0 0.0 0.00 0.00 0.00 90 1019.3
20260902083105 74 222 0.0 0.0 0.00 0.00 0.00 90 1019.2
20260902082601 74 224 0.0 0.0 0.00 0.00 0.00 90 1019.2
20260902082057 74 224 0.0 0.0 0.00 0.00 0.00 90 1019.2
20260902081554 75 225 0.0 0.0 0.00 0.00 0.00 89 1019.2
20260902081048 75 225 0.0 0.0 0.00 0.00 0.00 89 1019.2
20260902080543 75 225 0.0 0.0 0.00 0.00 0.00 89 1019.0
20260902080039 75 240 0.0 0.0 0.00 0.00 0.00 89 1019.0
20260902075539 75 232 0.0 0.0 0.00 0.00 0.00 88 1019.0
20260902075035 75 266 0.0 0.0 0.00 0.00 0.00 89 1019.0
20260902074530 75 237 0.0 0.0 0.00 0.00 0.00 89 1019.0
20260902074025 75 233 0.0 0.0 0.00 0.00 0.00 89 1019.0
20260902073521 75 237 0.0 1.0 0.00 0.00 0.00 90 1019.0
20260902073017 75 232 0.0 0.0 0.00 0.00 0.00 91 1019.0
20260902072512 75 232 0.0 0.0 0.00 0.00 0.00 91 1019.0
20260902072009 75 225 0.0 0.0 0.00 0.00 0.00 91 1019.1
20260902071508 75 233 0.0 0.0 0.00 0.00 0.00 91 1019.0
20260902071005 75 223 0.0 0.0 0.00 0.00 0.00 91 1019.2
20260902070500 75 224 0.0 0.0 0.00 0.00 0.00 90 1019.2
20260902065959 75 223 0.0 0.0 0.00 0.00 0.00 90 1019.2
20260902065454 75 225 0.0 0.0 0.00 0.00 0.00 90 1019.2
20260902064949 75 225 0.0 0.0 0.00 0.00 0.00 90 1019.0
20260902064445 75 231 0.0 0.0 0.00 0.00 0.00 89 1019.1
20260902063940 75 224 0.0 0.0 0.00 0.00 0.00 89 1019.1
20260902063440 75 231 0.0 0.0 0.00 0.00 0.00 89 1019.2
20260902062936 76 223 0.0 0.0 0.00 0.00 0.00 89 1019.2
20260902062434 76 220 0.0 0.0 0.00 0.00 0.00 89 1019.5
20260902061929 76 223 0.0 0.0 0.00 0.00 0.00 88 1019.3
20260902061424 76 221 0.0 0.0 0.00 0.00 0.00 87 1019.4
20260902060920 77 223 0.0 0.0 0.00 0.00 0.00 87 1019.2
20260902060416 77 245 0.0 0.0 0.00 0.00 0.00 86 1019.3
20260902055912 77 240 0.0 0.0 0.00 0.00 0.00 86 1019.2
20260902055408 77 236 0.0 0.0 0.00 0.00 0.00 87 1019.2
20260902054903 77 223 0.0 0.0 0.00 0.00 0.00 87 1019.3
20260902054358 77 235 0.0 0.0 0.00 0.00 0.00 86 1019.1
20260902053854 77 235 0.0 0.0 0.00 0.00 0.00 86 1019.1
20260902053348 77 235 0.0 0.0 0.00 0.00 0.00 86 1019.1
20260902052847 77 235 0.0 0.0 0.00 0.00 0.00 86 1019.3
20260902052337 78 235 0.0 0.0 0.00 0.00 0.00 85 1019.1
20260902051837 78 237 0.0 0.0 0.00 0.00 0.00 84 1019.1
20260902051331 78 237 0.0 0.0 0.00 0.00 0.00 84 1019.2
20260902050825 78 237 0.0 0.0 0.00 0.00 0.00 84 1019.1
20260902050325 78 237 0.0 0.0 0.00 0.00 0.00 84 1019.0
20260902045820 78 236 0.0 0.0 0.00 0.00 0.00 84 1019.1
20260902045316 78 232 0.0 0.0 0.00 0.00 0.00 84 1019.1
20260902044813 78 226 0.0 0.0 0.00 0.00 0.00 84 1019.1
20260902044308 78 236 0.0 0.0 0.00 0.00 0.00 83 1019.3
20260902043802 79 237 0.0 0.0 0.00 0.00 0.00 82 1019.2
20260902043258 79 235 0.0 0.0 0.00 0.00 0.00 82 1019.3
20260902042757 79 235 0.0 1.0 0.00 0.00 0.00 82 1019.3
20260902042252 79 237 0.0 0.0 0.00 0.00 0.00 82 1019.3
20260902041747 79 227 0.0 0.0 0.00 0.00 0.00 82 1019.3
20260902041247 79 232 0.0 0.0 0.00 0.00 0.00 82 1019.3
20260902040746 80 235 0.0 0.0 0.00 0.00 0.00 82 1019.3
20260902040242 80 233 0.0 0.0 0.00 0.00 0.00 81 1019.7
20260902035740 80 241 0.0 1.0 0.00 0.00 0.00 80 1019.2
20260902035236 80 244 0.0 0.0 0.00 0.00 0.00 80 1019.3
20260902034735 80 242 0.0 0.0 0.00 0.00 0.00 80 1019.2
20260902034230 80 235 0.0 1.0 0.00 0.00 0.00 80 1019.2
20260902033728 80 236 0.0 0.0 0.00 0.00 0.00 80 1019.2
20260902033223 80 236 0.0 0.0 0.00 0.00 0.00 81 1019.3
20260902032722 80 235 0.0 0.0 0.00 0.00 0.00 81 1019.2
20260902032217 80 233 0.0 1.0 0.00 0.00 0.00 81 1019.1
20260902031717 80 236 0.0 0.0 0.00 0.00 0.00 81 1019.1
20260902031212 80 237 0.0 0.0 0.00 0.00 0.00 82 1019.1
20260902030709 80 250 0.0 0.0 0.00 0.00 0.00 82 1019.1
20260902030208 80 236 0.0 0.0 0.00 0.00 0.00 82 1019.2
20260902025707 79 226 0.0 0.0 0.00 0.00 0.00 83 1019.2
20260902025203 79 226 0.0 0.0 0.00 0.00 0.00 83 1019.1
20260902024658 79 223 0.0 0.0 0.00 0.00 0.00 84 1019.1
20260902024153 79 223 0.0 0.0 0.00 0.00 0.00 84 1019.2
20260902023648 79 225 0.0 0.0 0.00 0.00 0.00 84 1019.1
20260902023143 79 225 0.0 0.0 0.00 0.00 0.00 84 1019.1
20260902022643 80 225 0.0 0.0 0.00 0.00 0.00 84 1019.1
20260902022139 80 225 0.0 0.0 0.00 0.00 0.00 84 1019.0
20260902021634 80 225 0.0 0.0 0.00 0.00 0.00 84 1019.0
20260902021129 80 225 0.0 0.0 0.00 0.00 0.00 84 1019.1
20260902020625 80 225 0.0 0.0 0.00 0.00 0.00 84 1019.1
20260902020120 80 225 0.0 0.0 0.00 0.00 0.00 84 1019.1
20260902015616 80 225 0.0 0.0 0.00 0.00 0.00 84 1019.0
20260902015112 80 225 0.0 0.0 0.00 0.00 0.00 84 1019.0
20260902014608 80 225 0.0 0.0 0.00 0.00 0.00 84 1018.7
20260902014103 80 224 0.0 0.0 0.00 0.00 0.00 84 1018.8
20260902013602 80 218 0.0 0.0 0.00 0.00 0.00 84 1018.8
20260902013058 80 218 0.0 0.0 0.00 0.00 0.00 84 1018.8
20260902012553 80 221 0.0 1.0 0.00 0.00 0.00 84 1018.9
20260902012048 80 220 0.0 0.0 0.00 0.00 0.00 84 1018.7
20260902011544 80 220 0.0 0.0 0.00 0.00 0.00 84 1018.6
20260902011043 81 215 0.0 0.0 0.00 0.00 0.00 83 1018.6
20260902010543 81 215 0.0 0.0 0.00 0.00 0.00 83 1018.6
20260902010039 81 215 0.0 0.0 0.00 0.00 0.00 83 1018.6
20260902005537 81 218 0.0 0.0 0.00 0.00 0.00 84 1018.6
20260902005033 81 218 0.0 0.0 0.00 0.00 0.00 84 1018.6
20260902004532 81 218 0.0 0.0 0.00 0.00 0.00 84 1018.6
20260902004028 81 217 0.0 0.0 0.00 0.00 0.00 84 1018.6
20260902003523 82 216 0.0 0.0 0.00 0.00 0.00 83 1018.6
20260902003018 82 215 0.0 0.0 0.00 0.00 0.00 80 1018.8
20260902002514 82 215 0.0 0.0 0.00 0.00 0.00 80 1018.8
20260902002009 82 215 0.0 0.0 0.00 0.00 0.00 80 1018.8